Weather History for Skelleftea, Sweden

Change the Weather History Date:

Wednesday, October 23, 2013

  Actual Average Record
Temperature  
Mean Temperature 34 °F -  
Max Temperature 37 °F - - ()
Min Temperature 30 °F - - ()
Degree Days  
Heating Degree Days 32    
Moisture  
Dew Point 35 °F    
Average Humidity 100    
Maximum Humidity 100    
Minimum Humidity 93    
Precipitation  
Precipitation 0.00 in - - ()
Sea Level Pressure  
Sea Level Pressure 29.35 in    
Wind  
Wind Speed 5 mph ()    
Max Wind Speed 10 mph    
Max Gust Speed -    
Visibility 3.2 miles    
Events Fog , Rain , Snow    
T = Trace of Precipitation, MM = Missing Value Source: Averaged Metar Reports

Daily Weather History Graph

Daily Weather History Graph

Search for Another Location

Airport:

Trip Planner

Search our weather history database for the weather conditions in past years. The results will help you decide how hot, cold, wet, or windy it might be!

Date:

Astronomy

Oct. 23, 2013 Rise Set
Actual Time 7:52 AM CEST 4:46 PM CEST
Civil Twilight 7:01 AM CEST 5:37 PM CEST
Nautical Twilight 6:04 AM CEST 6:34 PM CEST
Astronomical Twilight 5:07 AM CEST 7:30 PM CEST
Moon 6:53 PM CEST (10/23) 1:04 PM CEST (10/23)
Length of Visible Light 10h 36m
Length of Day
8h 53m
Waning Gibbous, 81% of the Moon is Illuminated
Oct 23
Waning Gibbous
Oct 27
Last Quarter
Nov 3
New
Nov 10
First Quarter
Nov 17
Full

Hourly Weather History & Observations

Time (CEST) Temp. Windchill Dew Point Humidity Pressure Visibility Wind Dir Wind Speed Gust Speed Precip Events Conditions
12:20 AM 32.0 °F 24.2 °F 32.0 °F 100% 29.68 in 1.1 mi SE 9.2 mph - N/A Snow Light Snow
12:50 AM 32.0 °F 23.6 °F 32.0 °F 100% 29.65 in 1.6 mi ESE 10.4 mph - N/A Snow Light Snow
1:20 AM 33.8 °F 26.4 °F 32.0 °F 93% 29.62 in 1.6 mi ESE 9.2 mph - N/A Snow Light Snow
1:50 AM 33.8 °F 27.0 °F 32.0 °F 93% 29.59 in 1.6 mi ESE 8.1 mph - N/A Snow Light Snow
2:20 AM 33.8 °F 28.6 °F 33.8 °F 100% 29.59 in 1.4 mi ESE 5.8 mph - N/A Rain , Snow Light Rain
2:50 AM 33.8 °F 28.6 °F 33.8 °F 100% 29.56 in 3.1 mi ESE 5.8 mph - N/A   Overcast
3:20 AM 33.8 °F 27.7 °F 33.8 °F 100% 29.53 in - East 6.9 mph - N/A Rain Light Rain
3:50 AM 33.8 °F 27.7 °F 33.8 °F 100% 29.50 in 3.1 mi ESE 6.9 mph - N/A Rain Light Rain
4:20 AM 33.8 °F 27.7 °F 33.8 °F 100% 29.47 in 3.7 mi East 6.9 mph - N/A Rain Light Rain
4:50 AM 35.6 °F 30.7 °F 35.6 °F 100% 29.44 in - East 5.8 mph - N/A Rain Rain
5:20 AM 35.6 °F 30.7 °F 35.6 °F 100% 29.42 in - ENE 5.8 mph - N/A Rain Rain
5:50 AM 37.4 °F 33.8 °F 37.4 °F 100% 29.39 in 2.8 mi ENE 4.6 mph - N/A Rain Rain
6:20 AM 37.4 °F - 37.4 °F 100% 29.36 in 2.5 mi NE 2.3 mph - N/A Rain Light Rain
6:50 AM 37.4 °F - 37.4 °F 100% 29.33 in 1.6 mi North 1.2 mph - N/A Rain Light Rain
7:20 AM 37.4 °F - 37.4 °F 100% 29.33 in 1.6 mi NW 1.2 mph - N/A Rain Light Rain
7:50 AM 35.6 °F - 35.6 °F 100% 29.30 in 1.6 mi NW 2.3 mph - N/A Rain Light Rain
8:20 AM 35.6 °F - 35.6 °F 100% 29.30 in 2.8 mi NNW 2.3 mph - N/A Rain Rain
8:50 AM 37.4 °F - 37.4 °F 100% 29.27 in 1.2 mi Variable 1.2 mph - N/A Rain Rain
9:20 AM 35.6 °F - 35.6 °F 100% 29.27 in 1.2 mi West 2.3 mph - N/A Rain Rain
9:50 AM 35.6 °F - 35.6 °F 100% 29.27 in 1.2 mi WSW 2.3 mph - N/A Rain Light Rain
10:20 AM 37.4 °F 34.9 °F 37.4 °F 100% 29.27 in 1.6 mi West 3.5 mph - N/A Rain Light Rain
10:50 AM 37.4 °F - 37.4 °F 100% 29.24 in 1.2 mi West 2.3 mph - N/A Rain Light Rain
11:20 AM 35.6 °F - 35.6 °F 100% 29.24 in 1.6 mi WSW 2.3 mph - N/A Rain Light Rain
11:50 AM 37.4 °F 34.9 °F 37.4 °F 100% 29.24 in 3.1 mi West 3.5 mph - N/A Rain Rain
12:20 PM 37.4 °F 34.9 °F 37.4 °F 100% 29.24 in 2.5 mi West 3.5 mph - N/A Rain Light Rain
12:50 PM 37.4 °F 34.9 °F 37.4 °F 100% 29.24 in 5.6 mi West 3.5 mph - N/A Rain Light Rain
1:20 PM 37.4 °F 33.8 °F 37.4 °F 100% 29.24 in 5.0 mi West 4.6 mph - N/A Rain Light Rain
1:50 PM 37.4 °F 34.9 °F 37.4 °F 100% 29.24 in 5.6 mi WSW 3.5 mph - N/A   Overcast
2:20 PM 37.4 °F 34.9 °F 37.4 °F 100% 29.24 in 5.6 mi WSW 3.5 mph - N/A   Overcast
2:50 PM 37.4 °F 34.9 °F 37.4 °F 100% 29.24 in 6.2 mi WSW 3.5 mph - N/A   Mostly Cloudy
3:20 PM 37.4 °F 34.9 °F 37.4 °F 100% 29.27 in 6.2 mi WSW 3.5 mph - N/A   Mostly Cloudy
3:50 PM 37.4 °F 34.9 °F 37.4 °F 100% 29.27 in 6.2 mi WSW 3.5 mph - N/A   Mostly Cloudy
4:20 PM 37.4 °F 33.8 °F 37.4 °F 100% 29.27 in 6.2 mi WSW 4.6 mph - N/A   Mostly Cloudy
4:50 PM 37.4 °F 34.9 °F 37.4 °F 100% 29.27 in 6.2 mi WSW 3.5 mph - N/A   Mostly Cloudy
5:20 PM 37.4 °F 33.8 °F 37.4 °F 100% 29.27 in 6.2 mi West 4.6 mph - N/A   Overcast
5:50 PM 37.4 °F 34.9 °F 37.4 °F 100% 29.30 in 6.2 mi NW 3.5 mph - N/A   Mostly Cloudy
6:20 PM 35.6 °F - 35.6 °F 100% 29.30 in 6.2 mi Calm Calm - N/A   Mostly Cloudy
6:50 PM 35.6 °F 32.8 °F 35.6 °F 100% 29.30 in 6.2 mi West 3.5 mph - N/A   Mostly Cloudy
7:20 PM 35.6 °F 32.8 °F 35.6 °F 100% 29.30 in 3.1 mi NW 3.5 mph - N/A   Overcast
8:20 PM 35.6 °F 32.8 °F 35.6 °F 100% 29.30 in 6.2 mi NW 3.5 mph - N/A   Mostly Cloudy
8:50 PM 33.8 °F - 33.8 °F 100% 29.30 in 5.6 mi West 2.3 mph - N/A   Scattered Clouds
9:20 PM 32.0 °F - 32.0 °F 100% 29.33 in 0.9 mi Variable 1.2 mph - N/A   Mist
9:50 PM 30.2 °F - 30.2 °F 100% 29.33 in 1.4 mi WNW 2.3 mph - N/A Fog Patches of Fog
10:20 PM 32.0 °F - 32.0 °F 100% 29.33 in 0.1 mi Calm Calm - N/A Fog Light Freezing Fog
10:50 PM 30.2 °F - 30.2 °F 100% 29.33 in 0.1 mi Calm Calm - N/A Fog Light Freezing Fog
11:20 PM 30.2 °F - 30.2 °F 100% 29.33 in 0.0 mi Calm Calm - N/A Fog Light Freezing Fog
11:50 PM 30.2 °F - 30.2 °F 100% 29.33 in 0.1 mi Calm Calm - N/A Fog Light Freezing Fog